Meteo Giornale » Osservazioni meteo Messico » Tijuana
ore: 22:47 - Osservazioni Meteo Tijuana
Lat. 32° 33' N Lon. 116° 58' W Alt. 152 metri s.l.m.
19 °C
Sereno
Temp. 24 Ore
19 °C
27 °C
Ovest/Sud-Ovest
9.3 Km/h
Dew point 17 °C
Umidità 88 %
Visibilità 13 Km
Il sole sorge alle ore 06:22
Il sole tramonta alle ore 19:12
| Data e Ora | Cielo e Fenomeni | T °C | DP °C | Um. % | Pres. hPa | Vis. km | Vento km/h | |
|---|---|---|---|---|---|---|---|---|
| Oggi h: 22:47 | Sereno | 19 | 17 | 88 | 1017 | 13 | O/SO 9.3 | |
| Oggi h: 21:43 | Sereno | 19 | 16 | 82 | 1016 | 13 | O/SO 13 | |
| Oggi h: 20:40 | Sereno | 20 | 16 | 77 | 1016 | 10 | O/SO 11.1 | |
| Oggi h: 19:49 | Sereno | 20 | 17 | 82 | 1015 | 10 | O 18.5 | |
| Oggi h: 18:46 | Sereno | 22 | 17 | 73 | 1015 | 10 | O/SO 16.7 | |
| Oggi h: 17:47 | Sereno | 24 | 16 | 60 | 1015 | 10 | O 14.8 | |
| Oggi h: 16:47 | Sereno | 25 | 16 | 57 | 1015 | 10 | O/SO 18.5 | |
| Oggi h: 15:48 | Sereno | 26 | 17 | 57 | 1015 | 10 | O 22.2 | |
| Oggi h: 14:47 | Poco Nuvoloso | 26 | 17 | 57 | 1015 | 10 | O 25.9 | |
| Oggi h: 13:48 | Poco Nuvoloso | 26 | 18 | 61 | 1016 | 10 | O 22.2 | |
| Oggi h: 12:44 | Sereno | 27 | 18 | 57 | 1016 | 10 | O 22.2 | |
| Oggi h: 11:42 | Sereno | 27 | 18 | 57 | 1016 | 10 | O 11.1 | |
| Oggi h: 10:46 | Sereno | 25 | 17 | 61 | 1017 | 10 | O/NO 7.4 | |
| Oggi h: 09:47 | Sereno | 24 | 18 | 69 | 1016 | 10 | O/NO 11.1 | |
| Oggi h: 09:09 | Poco Nuvoloso | 22 | 17 | 73 | 1016 | 13 | NO 9.3 | |
| Oggi h: 08:45 | Molto Nuvoloso | 21 | 18 | 82 | 1016 | 13 | O/NO 11.1 | |
| Oggi h: 08:18 | Molto Nuvoloso | 21 | 18 | 82 | 1016 | 13 | NO 9.3 | |
| Oggi h: 07:45 | Poco Nuvoloso | 20 | 17 | 82 | 1016 | 13 | N 0 | |
| Oggi h: 06:41 | Sereno | 19 | 17 | 88 | 1015 | 11 | N 0 | |
| Oggi h: 05:40 | Sereno | 19 | 17 | 88 | 1015 | 8 | N 5.5 | |
| Oggi h: 04:41 | Molto Nuvoloso | 20 | 18 | 88 | 1015 | 8 | N 7.4 | |
| Oggi h: 03:40 | Coperto | 20 | 18 | 88 | 1015 | 8 | NO 7.4 | |
| Oggi h: 02:40 | Coperto | 20 | 18 | 88 | 1015 | 10 | N 5.5 | |
| Oggi h: 01:40 | Molto Nuvoloso | 20 | 18 | 88 | 1015 | 10 | N 0 | |
| Oggi h: 00:40 | Poco Nuvoloso | 19 | 17 | 88 | 1015 | 10 | O/SO 11.1 | |
| Ieri h: 23:40 | Sereno | 20 | 17 | 82 | 1015 | 11 | O/SO 9.3 | |



